TimeEST,TemperatureF,Dew PointF,Humidity,Sea Level PressureIn,VisibilityMPH,Wind Direction,Wind SpeedMPH,Gust SpeedMPH,PrecipitationIn,Events,Conditions,WindDirDegrees,DateUTC
12:20 AM,28.4,28.4,100,29.50,2.5,SE,5.8,-,N/A,,Overcast,140,2013-02-12 05:20:00
12:25 AM,28.4,28.4,100,29.50,1.5,SE,4.6,-,N/A,,Overcast,140,2013-02-12 05:25:00
12:36 AM,28.4,28.4,100,29.49,2.0,SE,4.6,-,N/A,,Overcast,130,2013-02-12 05:36:00
12:44 AM,28.4,28.4,100,29.48,5.0,SE,6.9,-,N/A,,Overcast,130,2013-02-12 05:44:00
12:53 AM,28.9,28.0,96,29.51,4.0,SE,6.9,-,N/A,,Overcast,130,2013-02-12 05:53:00
1:21 AM,28.4,26.6,93,29.46,2.5,East,8.1,-,N/A,,Overcast,90,2013-02-12 06:21:00
1:53 AM,28.0,27.0,96,29.49,1.5,East,5.8,-,N/A,,Overcast,100,2013-02-12 06:53:00
2:06 AM,28.4,26.6,93,29.45,1.0,East,3.5,-,N/A,,Mist,100,2013-02-12 07:06:00
2:27 AM,28.4,26.6,93,29.45,0.8,ESE,5.8,-,0.00,Snow,Light Snow,110,2013-02-12 07:27:00
2:53 AM,28.0,27.0,96,29.47,0.8,ESE,5.8,-,0.00,Snow,Light Snow,120,2013-02-12 07:53:00
3:01 AM,28.4,26.6,93,29.43,1.0,ESE,5.8,-,0.00,Snow,Light Snow,120,2013-02-12 08:01:00
3:31 AM,28.4,26.6,93,29.42,1.5,East,4.6,-,0.01,Snow,Light Snow,100,2013-02-12 08:31:00
3:40 AM,28.4,26.6,93,29.41,1.2,East,3.5,-,0.02,Snow,Light Snow,100,2013-02-12 08:40:00
3:53 AM,28.0,27.0,96,29.45,1.2,East,5.8,-,0.02,Snow,Light Snow,100,2013-02-12 08:53:00
4:03 AM,28.4,26.6,93,29.41,1.8,ESE,4.6,-,0.00,Snow,Light Snow,110,2013-02-12 09:03:00
4:09 AM,28.4,26.6,93,29.41,1.2,East,3.5,-,0.00,Snow,Light Snow,90,2013-02-12 09:09:00
4:22 AM,28.4,26.6,93,29.41,1.5,East,4.6,-,0.01,Snow,Light Snow,100,2013-02-12 09:22:00
4:31 AM,28.4,26.6,93,29.41,1.5,ESE,3.5,-,0.01,Snow,Light Snow,110,2013-02-12 09:31:00
4:40 AM,28.4,26.6,93,29.41,2.0,East,5.8,-,0.01,Snow,Light Snow,90,2013-02-12 09:40:00
4:53 AM,28.0,27.0,96,29.44,2.5,East,3.5,-,0.01,Snow,Light Snow,100,2013-02-12 09:53:00
4:55 AM,28.4,26.6,93,29.40,3.0,ESE,3.5,-,0.00,Snow,Light Snow,110,2013-02-12 09:55:00
5:05 AM,28.4,26.6,93,29.40,6.0,ESE,4.6,-,0.00,,Overcast,110,2013-02-12 10:05:00
5:28 AM,28.4,26.6,93,29.40,2.5,ESE,5.8,-,0.00,Snow,Light Snow,120,2013-02-12 10:28:00
5:39 AM,28.4,26.6,93,29.39,1.8,SE,4.6,-,0.00,Snow,Light Snow,130,2013-02-12 10:39:00
5:53 AM,28.0,27.0,96,29.43,3.0,SE,3.5,-,0.00,Snow,Light Snow,130,2013-02-12 10:53:00
6:20 AM,28.4,26.6,93,29.39,2.5,Calm,Calm,-,0.00,Snow,Light Snow,0,2013-02-12 11:20:00
6:30 AM,28.4,26.6,93,29.39,3.0,Calm,Calm,-,0.00,Snow,Light Snow,0,2013-02-12 11:30:00
6:37 AM,28.4,26.6,93,29.39,3.0,Calm,Calm,-,0.00,Snow,Light Snow,0,2013-02-12 11:37:00
6:44 AM,28.4,26.6,93,29.39,2.0,Calm,Calm,-,0.00,Snow,Light Snow,0,2013-02-12 11:44:00
6:53 AM,28.0,27.0,96,29.42,2.0,Calm,Calm,-,0.01,Snow,Light Snow,0,2013-02-12 11:53:00
7:08 AM,28.4,26.6,93,29.39,2.0,Calm,Calm,-,0.00,Snow,Light Snow,0,2013-02-12 12:08:00
7:16 AM,28.4,26.6,93,29.39,1.5,Calm,Calm,-,0.00,Snow,Light Snow,0,2013-02-12 12:16:00
7:26 AM,28.4,26.6,93,29.39,1.2,Calm,Calm,-,0.00,Snow,Light Snow,0,2013-02-12 12:26:00
7:53 AM,28.0,28.0,100,29.42,1.0,SSW,3.5,-,0.00,Snow,Light Snow,200,2013-02-12 12:53:00
8:02 AM,28.4,28.4,100,29.38,0.8,South,3.5,-,0.01,Snow,Light Snow,190,2013-02-12 13:02:00
8:23 AM,28.4,28.4,100,29.38,1.2,SSW,3.5,-,0.01,Snow,Light Snow,200,2013-02-12 13:23:00
8:53 AM,28.9,28.0,96,29.41,0.8,SW,4.6,-,0.01,Snow,Light Snow,220,2013-02-12 13:53:00
9:01 AM,28.4,28.4,100,29.38,1.0,SSW,3.5,-,0.01,Snow,Light Snow,210,2013-02-12 14:01:00
9:09 AM,28.4,28.4,100,29.38,1.2,Calm,Calm,-,0.01,Snow,Light Snow,0,2013-02-12 14:09:00
9:17 AM,30.2,28.4,93,29.38,1.5,West,3.5,-,0.01,Snow,Light Snow,260,2013-02-12 14:17:00
9:36 AM,30.2,28.4,93,29.38,1.8,West,5.8,-,0.01,Snow,Light Snow,270,2013-02-12 14:36:00
9:43 AM,30.2,28.4,93,29.38,2.5,West,4.6,-,0.01,Snow,Light Snow,280,2013-02-12 14:43:00
9:51 AM,30.2,28.4,93,29.37,4.0,WNW,4.6,-,0.01,Snow,Light Snow,290,2013-02-12 14:51:00
9:53 AM,30.0,28.0,92,29.40,4.0,WNW,5.8,-,0.01,Snow,Light Snow,290,2013-02-12 14:53:00
10:35 AM,30.2,28.4,93,29.37,6.0,West,8.1,-,0.00,,Overcast,280,2013-02-12 15:35:00
10:53 AM,32.0,28.9,88,29.40,10.0,West,9.2,-,0.00,,Overcast,280,2013-02-12 15:53:00
11:00 AM,32.0,28.4,87,29.37,10.0,West,9.2,-,N/A,,Overcast,280,2013-02-12 16:00:00
11:53 AM,32.0,28.0,85,29.40,10.0,WNW,9.2,-,N/A,,Overcast,290,2013-02-12 16:53:00
12:27 PM,32.0,28.4,87,29.37,7.0,WNW,8.1,-,0.00,,Overcast,300,2013-02-12 17:27:00
12:37 PM,33.8,28.4,81,29.37,10.0,WNW,11.5,-,0.00,,Overcast,300,2013-02-12 17:37:00
12:53 PM,32.0,28.0,85,29.40,6.0,NW,11.5,-,0.00,,Overcast,310,2013-02-12 17:53:00
1:22 PM,32.0,28.4,87,29.38,3.0,NW,6.9,-,0.00,Snow,Light Snow,320,2013-02-12 18:22:00
1:29 PM,32.0,28.4,87,29.38,3.0,NW,6.9,-,0.00,Snow,Light Snow,320,2013-02-12 18:29:00
1:43 PM,32.0,28.4,87,29.39,6.0,NW,9.2,-,0.00,Snow,Light Snow,310,2013-02-12 18:43:00
1:53 PM,32.0,28.9,88,29.42,9.0,NW,8.1,-,0.00,,Overcast,320,2013-02-12 18:53:00
2:26 PM,32.0,28.4,87,29.40,10.0,NW,9.2,-,N/A,,Overcast,310,2013-02-12 19:26:00
2:53 PM,30.9,27.0,85,29.44,10.0,NW,12.7,-,N/A,,Overcast,320,2013-02-12 19:53:00
3:23 PM,30.2,26.6,86,29.42,7.0,NW,13.8,-,0.00,Snow,Light Snow,320,2013-02-12 20:23:00
3:35 PM,30.2,26.6,86,29.42,7.0,NW,15.0,-,0.00,Snow,Light Snow,320,2013-02-12 20:35:00
3:53 PM,30.9,27.0,85,29.46,10.0,NW,13.8,-,0.00,,Overcast,320,2013-02-12 20:53:00
4:53 PM,30.0,26.1,85,29.47,10.0,NW,18.4,25.3,N/A,,Overcast,320,2013-02-12 21:53:00
5:28 PM,28.4,24.8,86,29.46,10.0,NW,13.8,24.2,N/A,,Overcast,320,2013-02-12 22:28:00
5:53 PM,28.9,25.0,85,29.49,10.0,NNW,12.7,23.0,N/A,,Overcast,330,2013-02-12 22:53:00
6:53 PM,28.0,25.0,88,29.51,10.0,NNW,13.8,21.9,N/A,,Overcast,330,2013-02-12 23:53:00
7:53 PM,28.0,24.1,85,29.54,10.0,NW,16.1,26.5,N/A,,Overcast,320,2013-02-13 00:53:00
8:17 PM,28.4,24.8,86,29.51,10.0,NW,11.5,25.3,N/A,,Overcast,320,2013-02-13 01:17:00
8:26 PM,26.6,24.8,93,29.52,10.0,NW,13.8,-,N/A,,Overcast,320,2013-02-13 01:26:00
8:53 PM,28.0,24.1,85,29.56,10.0,NW,11.5,-,N/A,,Overcast,320,2013-02-13 01:53:00
9:53 PM,28.0,24.1,85,29.58,10.0,WNW,8.1,-,N/A,,Overcast,300,2013-02-13 02:53:00
10:33 PM,28.4,24.8,86,29.55,10.0,WNW,9.2,-,N/A,,Overcast,300,2013-02-13 03:33:00
10:53 PM,28.0,23.0,81,29.59,10.0,WNW,10.4,-,N/A,,Overcast,300,2013-02-13 03:53:00
11:45 PM,26.6,23.0,86,29.57,10.0,NW,6.9,-,N/A,,Overcast,310,2013-02-13 04:45:00
11:53 PM,27.0,23.0,85,29.60,10.0,WNW,6.9,-,N/A,,Overcast,300,2013-02-13 04:53:00